Home > Weather > Buchs > Past weeks

Flag for Switzerland Weather for the Past 2 Weeks in Buchs, St. Gallen, Switzerland

Now
33 °F

Drizzle. Overcast.


Feels Like: 33 °F
Forecast: 36 / 50 °F
Wind: 1 mph from West

Location: Vaduz

Current Time: Feb 12, 2016 at 3:15:56 AM

Latest Report: Feb 12, 2016 at 1:00 AM


Visibility: 6 mi

Pressure: 29.79 "Hg

Humidity: 75%

Dew point: 26 °F

Location of BuchsLocation

Historic Weather in Buchs — Graph

°F

Buchs Temperature Yesterday

Maximum temperature yesterday: 45 °F (at 4:00 PM)
Minimum temperature yesterday: 32 °F (at 9:00 AM)
Average temperature yesterday: 37 °F

High & Low Weather Summary for the Past Weeks

 TemperatureHumidityPressure
High62 °F (Feb 6, 2:00 PM)96% (Jan 31, 3:00 AM)30.53 "Hg (Jan 31, 3:00 AM)
Low32 °F (Feb 11, 9:00 AM)24% (Feb 6, 4:00 PM)29.29 "Hg (Feb 9, 6:00 PM)
Average45 °F64%30.09 "Hg
* Reported Jan 28 1:00 AM — Feb 12 1:00 AM, Buchs, Weather by CustomWeather, © 2016

Note: Actual official high and low records may vary slightly from our data, if they occured in-between our weather recording intervals... More about our weather records

Advertising

Buchs Weather History for the Previous 24 Hours

 ConditionsComfort  
Time TempWeatherWind HumidityBarometerVisibility
1:00 AM
Fri, Feb 12
33 °FDrizzle. Overcast.1 mph75%29.79 "Hg6 mi
12:00 AM35 °FChilly.1 mph68%29.79 "HgN/A
10:00 PM
Thu, Feb 11
35 °FOvercast.2 mph64%29.79 "Hg12 mi
9:00 PM36 °FChilly.2 mph58%29.78 "HgN/A
8:00 PM35 °FChilly.2 mph66%29.79 "HgN/A
7:00 PM37 °FChilly.1 mph54%29.78 "HgN/A
6:00 PM40 °FChilly.5 mph48%29.77 "HgN/A
5:00 PM43 °FQuite cool.5 mph36%29.75 "HgN/A
4:00 PM45 °FHaze.3 mph39%29.74 "Hg6 mi
3:00 PM44 °FQuite cool.2 mph31%29.75 "HgN/A
2:00 PM44 °FQuite cool.3 mph36%29.78 "HgN/A
1:00 PM42 °FHaze.6 mph36%29.81 "Hg6 mi
12:00 PM39 °FChilly.5 mph43%29.85 "HgN/A
11:00 AM38 °FChilly.6 mph51%29.87 "HgN/A
10:00 AM34 °FChilly.3 mph52%29.90 "HgN/A
9:00 AM32 °FChilly.6 mph58%29.90 "HgN/A
8:00 AM32 °FChilly.5 mph58%29.90 "HgN/A
7:00 AM32 °FChilly.5 mph57%29.89 "HgN/A
6:00 AM33 °FChilly.7 mph59%29.88 "HgN/A
5:00 AM33 °FChilly.6 mph63%29.88 "HgN/A
Weather by CustomWeather, © 2016

See weather overviewHow to use our weather pages